Location: Martley
(52.2333°N, 2.3667°W)
Time: 07:21:13
(UTC+00:00)

Cosmos 2297 Rocket - Pass Details

Date: 11 December 2019
Orbit: 838 x 845 km, 71.0° (Epoch: 28 January)

Event Time Altitude Azimuth Distance (km) Brightness Sun altitude
Exits shadow 05:08:18 27° 353° (N) 1,575 3.5 -26.1°
Drops below altitude 10° 05:11:29 10° 21° (NNE) 2,471 4.8 -25.7°
Sets 05:14:11 0° 31° (NNE) 3,410 5.7 -25.2°
